Hazen, ND

9:16 AM CST on December 07, 2016 (GMT -0600)
Mercer County Regional

Weather History for KHZE - April, 2014

Change the Weather History Date:

Tuesday, April 22, 2014

  Actual Average (KN60) Record (KN60)
Temperature  
Mean Temperature 48 °F -  
Max Temperature 71 °F 57 °F 73 °F (1998)
Min Temperature 26 °F 31 °F 19 °F (2015)
Degree Days  
Heating Degree Days 16    
Moisture  
Dew Point 28 °F    
Average Humidity 51    
Maximum Humidity 100    
Minimum Humidity 20    
Precipitation  
Precipitation 0.00 in - - ()
Sea Level Pressure  
Sea Level Pressure 29.92 in    
Wind  
Wind Speed 8 mph (ESE)    
Max Wind Speed 25 mph    
Max Gust Speed 36 mph    
Visibility 10 miles    
Events      
Averages and records for this station are not official NWS values.
T = Trace of Precipitation, MM = Missing Value Source: NWS Daily Summary

Daily Weather History Graph

Daily Weather History Graph

Search for Another Location

Airport or City:

Trip Planner

Search our weather history database for the weather conditions in past years. The results will help you decide how hot, cold, wet, or windy it might be!

Date:

Astronomy

Apr. 22, 2014 Rise Set
Actual Time 6:45 AM CDT 8:45 PM CDT
Civil Twilight 6:12 AM CDT 9:18 PM CDT
Nautical Twilight 5:31 AM CDT 9:59 PM CDT
Astronomical Twilight 4:46 AM CDT 10:44 PM CDT
Moon 3:03 AM CDT (4/22) 1:21 PM CDT (4/22)
Length of Visible Light 15h 06m
Length of Day
14h 00m
Last Quarter, 46% of the Moon is Illuminated
Apr 22
Last Quarter
Apr 29
New
May 6
First Quarter
May 14
Full
May 21
Last Quarter

Hourly Weather History & Observations

Time (CDT) Temp. Windchill Dew Point Humidity Pressure Visibility Wind Dir Wind Speed Gust Speed Precip Events Conditions
12:15 AM 32.0 °F 28.7 °F 26.6 °F 80% 30.11 in 10.0 mi South 3.5 mph - N/A   Clear
12:35 AM 32.0 °F - 26.6 °F 80% 30.11 in 10.0 mi Calm Calm - N/A   Clear
12:55 AM 32.0 °F 28.7 °F 28.4 °F 87% 30.11 in 10.0 mi WNW 3.5 mph - N/A   Partly Cloudy
1:15 AM 32.0 °F - 28.4 °F 87% 30.11 in 10.0 mi Calm Calm - N/A   Partly Cloudy
1:35 AM 30.2 °F - 26.6 °F 86% 30.11 in 10.0 mi Calm Calm - N/A   Clear
1:55 AM 28.4 °F - 26.6 °F 93% 30.11 in 10.0 mi Calm Calm - N/A   Clear
2:15 AM 28.4 °F - 26.6 °F 93% 30.11 in 10.0 mi Calm Calm - N/A   Clear
2:35 AM 30.2 °F - 26.6 °F 86% 30.11 in 10.0 mi Calm Calm - N/A   Clear
2:55 AM 28.4 °F - 24.8 °F 86% 30.11 in 10.0 mi Calm Calm - N/A   Clear
3:15 AM 28.4 °F - 26.6 °F 93% 30.10 in 10.0 mi Calm Calm - N/A   Clear
3:35 AM 28.4 °F - 24.8 °F 86% 30.10 in 10.0 mi Calm Calm - N/A   Partly Cloudy
3:55 AM 26.6 °F - 24.8 °F 93% 30.09 in 10.0 mi Calm Calm - N/A   Mostly Cloudy
4:15 AM 26.6 °F - 23.0 °F 86% 30.08 in 10.0 mi Calm Calm - N/A   Scattered Clouds
4:35 AM 26.6 °F - 24.8 °F 93% 30.08 in 10.0 mi Calm Calm - N/A   Scattered Clouds
5:15 AM 26.6 °F - 23.0 °F 86% 30.07 in 10.0 mi Calm Calm - N/A   Scattered Clouds
5:35 AM 26.6 °F - 23.0 °F 86% 30.07 in 10.0 mi Calm Calm - N/A   Clear
5:55 AM 26.6 °F - 24.8 °F 93% 30.06 in 10.0 mi Calm Calm - N/A   Clear
6:15 AM 26.6 °F - 23.0 °F 86% 30.07 in 10.0 mi Calm Calm - N/A   Partly Cloudy
6:35 AM 26.6 °F - 24.8 °F 93% 30.06 in 10.0 mi Calm Calm - N/A   Clear
6:55 AM 26.6 °F - 24.8 °F 93% 30.06 in 9.0 mi Calm Calm - N/A   Clear
7:15 AM 28.4 °F - 26.6 °F 93% 30.06 in 8.0 mi Calm Calm - N/A   Clear
7:35 AM 30.2 °F 24.3 °F 28.4 °F 93% 30.05 in 5.0 mi NE 5.8 mph - N/A   Clear
7:55 AM 32.0 °F 26.4 °F 28.4 °F 87% 30.05 in 5.0 mi ENE 5.8 mph - N/A   Clear
8:15 AM 32.0 °F 25.6 °F 32.0 °F 100% 30.04 in 8.0 mi ENE 6.9 mph - N/A   Clear
8:35 AM 37.4 °F 32.8 °F 32.0 °F 81% 30.03 in 10.0 mi NE 5.8 mph - N/A   Clear
8:55 AM 39.2 °F 35.0 °F 33.8 °F 81% 30.02 in 10.0 mi ENE 5.8 mph - N/A   Clear
9:15 AM 42.8 °F 38.6 °F 35.6 °F 76% 30.02 in 10.0 mi NE 6.9 mph - N/A   Clear
9:35 AM 46.4 °F 44.3 °F 35.6 °F 66% 30.01 in 10.0 mi NNE 4.6 mph - N/A   Clear
9:55 AM 55.4 °F - 30.2 °F 38% 29.99 in 10.0 mi SSE 12.7 mph - N/A   Clear
10:15 AM 59.0 °F - 28.4 °F 31% 29.98 in 10.0 mi SE 12.7 mph 17.3 mph N/A   Clear
10:35 AM 59.0 °F - 26.6 °F 29% 29.97 in 10.0 mi SE 16.1 mph 23.0 mph N/A   Clear
10:55 AM 60.8 °F - 26.6 °F 27% 29.96 in 10.0 mi SE 18.4 mph 26.5 mph N/A   Clear
11:15 AM 62.6 °F - 24.8 °F 24% 29.96 in 10.0 mi SE 17.3 mph 23.0 mph N/A   Clear
11:35 AM 62.6 °F - 24.8 °F 24% 29.95 in 10.0 mi SE 17.3 mph 27.6 mph N/A   Clear
11:55 AM 62.6 °F - 26.6 °F 26% 29.94 in 10.0 mi SE 15.0 mph 25.3 mph N/A   Clear
12:15 PM 64.4 °F - 24.8 °F 22% 29.93 in 10.0 mi SE 19.6 mph 26.5 mph N/A   Clear
12:35 PM 64.4 °F - 26.6 °F 24% 29.93 in 10.0 mi ESE 17.3 mph 26.5 mph N/A   Clear
12:55 PM 64.4 °F - 26.6 °F 24% 29.91 in 10.0 mi SE 20.7 mph 29.9 mph N/A   Clear
1:15 PM 64.4 °F - 26.6 °F 24% 29.90 in 10.0 mi ESE 18.4 mph 26.5 mph N/A   Clear
1:35 PM 66.2 °F - 26.6 °F 23% 29.89 in 10.0 mi ESE 17.3 mph 26.5 mph N/A   Clear
1:55 PM 66.2 °F - 26.6 °F 23% 29.88 in 10.0 mi SE 19.6 mph 31.1 mph N/A   Clear
2:15 PM 66.2 °F - 26.6 °F 23% 29.87 in 10.0 mi SE 21.9 mph 29.9 mph N/A   Clear
2:35 PM 68.0 °F - 28.4 °F 23% 29.86 in 10.0 mi SE 24.2 mph 31.1 mph N/A   Clear
2:55 PM 68.0 °F - 28.4 °F 23% 29.85 in 10.0 mi SE 17.3 mph 27.6 mph N/A   Clear
3:15 PM 68.0 °F - 26.6 °F 21% 29.84 in 10.0 mi SE 23.0 mph 32.2 mph N/A   Clear
3:35 PM 69.8 °F - 26.6 °F 20% 29.83 in 10.0 mi SE 21.9 mph 28.8 mph N/A   Clear
3:55 PM 69.8 °F - 28.4 °F 21% 29.82 in 10.0 mi ESE 18.4 mph 29.9 mph N/A   Clear
4:15 PM 69.8 °F - 28.4 °F 21% 29.82 in 10.0 mi SE 21.9 mph 31.1 mph N/A   Clear
4:35 PM 71.6 °F - 28.4 °F 20% 29.81 in 10.0 mi SE 23.0 mph 31.1 mph N/A   Clear
4:55 PM 69.8 °F - 28.4 °F 21% 29.80 in 10.0 mi SSE 24.2 mph 32.2 mph N/A   Clear
5:15 PM 68.0 °F - 28.4 °F 23% 29.79 in 10.0 mi SSE 24.2 mph 29.9 mph N/A   Clear
5:35 PM 68.0 °F - 28.4 °F 23% 29.79 in 10.0 mi SSE 23.0 mph 32.2 mph N/A   Clear
5:55 PM 68.0 °F - 28.4 °F 23% 29.78 in 10.0 mi SSE 24.2 mph 32.2 mph N/A   Clear
6:15 PM 66.2 °F - 28.4 °F 24% 29.78 in 10.0 mi SE 25.3 mph 35.7 mph N/A   Clear
6:35 PM 66.2 °F - 28.4 °F 24% 29.77 in 10.0 mi SE 21.9 mph 32.2 mph N/A   Clear
6:55 PM 66.2 °F - 28.4 °F 24% 29.77 in 10.0 mi SE 24.2 mph 34.5 mph N/A   Clear
7:15 PM 64.4 °F - 28.4 °F 26% 29.77 in 10.0 mi ESE 21.9 mph 31.1 mph N/A   Clear
7:35 PM 64.4 °F - 30.2 °F 28% 29.75 in 10.0 mi ESE 21.9 mph 28.8 mph N/A   Clear
7:55 PM 62.6 °F - 30.2 °F 30% 29.75 in 10.0 mi SE 20.7 mph 27.6 mph N/A   Clear
8:15 PM 62.6 °F - 30.2 °F 30% 29.74 in 10.0 mi SE 17.3 mph 29.9 mph N/A   Clear
8:35 PM 59.0 °F - 30.2 °F 34% 29.74 in 10.0 mi ESE 11.5 mph 20.7 mph N/A   Clear
8:55 PM 57.2 °F - 30.2 °F 36% 29.74 in 10.0 mi SE 11.5 mph 17.3 mph N/A   Clear
9:15 PM 57.2 °F - 32.0 °F 38% 29.74 in 10.0 mi ESE 12.7 mph 18.4 mph N/A   Clear
9:35 PM 57.2 °F - 30.2 °F 36% 29.74 in 10.0 mi East 10.4 mph 18.4 mph N/A   Clear
9:55 PM 55.4 °F - 30.2 °F 38% 29.74 in 10.0 mi ESE 11.5 mph 19.6 mph N/A   Clear
10:15 PM 55.4 °F - 32.0 °F 41% 29.74 in 10.0 mi ESE 17.3 mph 24.2 mph N/A   Clear
10:35 PM 57.2 °F - 32.0 °F 38% 29.73 in 10.0 mi ESE 19.6 mph 28.8 mph N/A   Clear
10:55 PM 57.2 °F - 32.0 °F 38% 29.73 in 10.0 mi ESE 19.6 mph 32.2 mph N/A   Clear
11:15 PM 55.4 °F - 32.0 °F 41% 29.72 in 10.0 mi ESE 18.4 mph 28.8 mph N/A   Mostly Cloudy
11:35 PM 55.4 °F - 32.0 °F 41% 29.69 in 10.0 mi ESE 19.6 mph 28.8 mph N/A   Mostly Cloudy
11:55 PM 55.4 °F - 32.0 °F 41% 29.68 in 10.0 mi ESE 17.3 mph 26.5 mph N/A   Mostly Cloudy